When you browse on this site, cookies collect data to enhance your experience and personalize the content and advertising you see.
Visit our Privacy Policy to learn more. By continuing to use the site, you agree to this use of cookies and data.
  • In United Kingdom
  • List of Countries
  • For 7 days
  • Water Temperature
  • Satellite Maps
  • Weather Map
  • Weather Widgets
  • user-avatar
    Login

    Hourly Weather Aberaeron

    Today, 20 June, Thursday

    Time Temperature Precipitation Wind Pressure Humidity
    00:00 +8°C° 0 mm 3 mps 749 mmHg 96%
    01:00 +8°C° 0.1 mm 3 mps 749 mmHg 97%
    02:00 +9°C° 0.1 mm 3 mps 749 mmHg 97%
    03:00 +9°C° 0.1 mm 3 mps 749 mmHg 97%
    04:00 +8°C° 0.2 mm 4 mps 749 mmHg 96%
    05:00 +10°C° 0.2 mm 4 mps 750 mmHg 95%
    06:00 +10°C° 0 mm 5 mps 750 mmHg 95%
    07:00 +10°C° 0.2 mm 5 mps 750 mmHg 92%
    08:00 +12°C° 0.2 mm 5 mps 750 mmHg 90%
    09:00 +12°C° 0.2 mm 5 mps 750 mmHg 87%
    10:00 +13°C° 0.1 mm 5 mps 750 mmHg 82%
    11:00 +13°C° 0.1 mm 5 mps 751 mmHg 77%
    12:00 +14°C° 0.1 mm 5 mps 751 mmHg 72%
    13:00 +14°C° 0 mm 5 mps 751 mmHg 72%
    14:00 +14°C° 0 mm 6 mps 751 mmHg 72%
    15:00 +14°C° 0 mm 6 mps 751 mmHg 71%
    16:00 +13°C° 0 mm 6 mps 751 mmHg 74%
    17:00 +13°C° 0 mm 6 mps 751 mmHg 77%
    18:00 +11°C° 0 mm 6 mps 752 mmHg 80%
    19:00 +10°C° 0 mm 5 mps 752 mmHg 84%
    20:00 +9°C° 0 mm 5 mps 752 mmHg 89%
    21:00 +8°C° 0 mm 4 mps 753 mmHg 93%
    22:00 +7°C° 0 mm 4 mps 753 mmHg 94%
    23:00 +7°C° 0 mm 4 mps 753 mmHg 94%

    Tomorrow, 21 June, Friday

    Time Temperature Precipitation Wind Pressure Humidity
    00:00 +7°C° 0 mm 3 mps 754 mmHg 95%
    01:00 +7°C° 0 mm 3 mps 754 mmHg 95%
    02:00 +7°C° 0 mm 3 mps 754 mmHg 95%
    03:00 +7°C° 0 mm 3 mps 754 mmHg 94%
    04:00 +8°C° 0 mm 3 mps 754 mmHg 94%
    05:00 +9°C° 0 mm 3 mps 755 mmHg 93%
    06:00 +10°C° 0 mm 3 mps 755 mmHg 93%
    07:00 +10°C° 0 mm 3 mps 755 mmHg 89%
    08:00 +11°C° 0 mm 3 mps 756 mmHg 85%
    09:00 +12°C° 0 mm 3 mps 756 mmHg 81%
    10:00 +13°C° 0 mm 3 mps 756 mmHg 78%
    11:00 +13°C° 0 mm 3 mps 757 mmHg 76%
    12:00 +13°C° 0 mm 3 mps 757 mmHg 73%
    13:00 +14°C° 0 mm 3 mps 757 mmHg 73%
    14:00 +14°C° 0 mm 3 mps 757 mmHg 73%
    15:00 +15°C° 0 mm 2 mps 757 mmHg 72%
    16:00 +14°C° 0 mm 2 mps 757 mmHg 73%
    17:00 +14°C° 0 mm 2 mps 757 mmHg 74%
    18:00 +14°C° 0 mm 2 mps 757 mmHg 75%
    19:00 +12°C° 0 mm 1 mps 758 mmHg 79%
    20:00 +10°C° 0 mm 1 mps 758 mmHg 83%
    21:00 +8°C° 0 mm 1 mps 758 mmHg 87%
    22:00 +8°C° 0 mm 1 mps 758 mmHg 88%
    23:00 +8°C° 0 mm 1 mps 758 mmHg 88%

    Day after tomorrow, 22 June, Saturday

    Time Temperature Precipitation Wind Pressure Humidity
    00:00 +6°C° 0 mm 2 mps 758 mmHg 88%
    01:00 +6°C° 0 mm 2 mps 758 mmHg 88%
    02:00 +6°C° 0 mm 2 mps 758 mmHg 89%
    03:00 +6°C° 0 mm 2 mps 758 mmHg 89%
    04:00 +7°C° 0 mm 2 mps 758 mmHg 88%
    05:00 +8°C° 0 mm 2 mps 758 mmHg 87%
    06:00 +9°C° 0 mm 2 mps 758 mmHg 87%
    07:00 +12°C° 0 mm 2 mps 758 mmHg 81%
    08:00 +14°C° 0 mm 2 mps 757 mmHg 76%
    09:00 +15°C° 0 mm 2 mps 757 mmHg 71%
    10:00 +16°C° 0 mm 2 mps 757 mmHg 70%
    11:00 +17°C° 0 mm 2 mps 757 mmHg 68%
    12:00 +18°C° 0 mm 2 mps 757 mmHg 67%
    13:00 +18°C° 0 mm 2 mps 757 mmHg 67%
    14:00 +18°C° 0 mm 2 mps 756 mmHg 68%
    15:00 +18°C° 0 mm 2 mps 756 mmHg 68%
    16:00 +18°C° 0 mm 2 mps 756 mmHg 72%
    17:00 +18°C° 0 mm 2 mps 756 mmHg 75%
    18:00 +18°C° 0 mm 2 mps 756 mmHg 79%
    19:00 +16°C° 0 mm 2 mps 756 mmHg 83%
    20:00 +15°C° 0 mm 2 mps 756 mmHg 87%
    21:00 +14°C° 0 mm 2 mps 756 mmHg 91%
    22:00 +12°C° 0 mm 3 mps 756 mmHg 90%
    23:00 +12°C° 0 mm 3 mps 755 mmHg 88%

    23 June, Sunday

    Time Temperature Precipitation Wind Pressure Humidity
    00:00 +11°C° 0 mm 3 mps 755 mmHg 87%
    01:00 +11°C° 0 mm 4 mps 755 mmHg 84%
    02:00 +11°C° 0 mm 4 mps 755 mmHg 82%
    03:00 +10°C° 0 mm 5 mps 755 mmHg 80%
    04:00 +12°C° 0 mm 4 mps 755 mmHg 82%
    05:00 +12°C° 0 mm 4 mps 755 mmHg 83%
    06:00 +13°C° 0 mm 4 mps 755 mmHg 85%
    07:00 +14°C° 0 mm 4 mps 755 mmHg 84%
    08:00 +17°C° 0 mm 4 mps 755 mmHg 82%
    09:00 +18°C° 0 mm 4 mps 755 mmHg 81%
    10:00 +19°C° 0 mm 4 mps 755 mmHg 79%
    11:00 +20°C° 0 mm 4 mps 755 mmHg 77%
    12:00 +21°C° 0 mm 4 mps 754 mmHg 75%
    13:00 +21°C° 0.1 mm 3 mps 754 mmHg 78%
    14:00 +21°C° 0.1 mm 2 mps 754 mmHg 81%
    15:00 +22°C° 0.1 mm 1 mps 753 mmHg 84%
    16:00 +19°C° 1.6 mm 2 mps 753 mmHg 88%
    17:00 +18°C° 1.6 mm 2 mps 753 mmHg 93%
    18:00 +17°C° 1.6 mm 2 mps 753 mmHg 97%
    19:00 +16°C° 1.5 mm 2 mps 753 mmHg 98%
    20:00 +16°C° 1.5 mm 2 mps 753 mmHg 98%
    21:00 +16°C° 1.5 mm 2 mps 753 mmHg 98%
    22:00 +16°C° 0.1 mm 2 mps 752 mmHg 97%
    23:00 +16°C° 0.1 mm 1 mps 752 mmHg 97%

    24 June, Monday

    Time Temperature Precipitation Wind Pressure Humidity
    00:00 +16°C° 0.1 mm 1 mps 752 mmHg 96%
    01:00 +18°C° 0.7 mm 1 mps 751 mmHg 96%
    02:00 +18°C° 0.7 mm 1 mps 751 mmHg 97%
    03:00 +18°C° 0.7 mm 1 mps 751 mmHg 98%
    04:00 +17°C° 2.7 mm 2 mps 751 mmHg 98%
    05:00 +17°C° 2.7 mm 3 mps 751 mmHg 98%
    06:00 +17°C° 2.7 mm 4 mps 751 mmHg 98%
    07:00 +17°C° 1 mm 3 mps 751 mmHg 97%
    08:00 +17°C° 1 mm 2 mps 752 mmHg 96%
    09:00 +18°C° 1 mm 1 mps 752 mmHg 95%
    10:00 +18°C° 0.1 mm 2 mps 753 mmHg 93%
    11:00 +19°C° 0.1 mm 2 mps 754 mmHg 90%
    12:00 +20°C° 0.1 mm 3 mps 754 mmHg 88%
    13:00 +20°C° 0 mm 3 mps 754 mmHg 88%
    14:00 +20°C° 0 mm 3 mps 755 mmHg 87%
    15:00 +20°C° 0 mm 2 mps 755 mmHg 87%
    16:00 +19°C° 0 mm 2 mps 755 mmHg 87%
    17:00 +19°C° 0 mm 2 mps 756 mmHg 87%
    18:00 +19°C° 0 mm 2 mps 756 mmHg 87%
    19:00 +19°C° 0 mm 1 mps 756 mmHg 90%
    20:00 +18°C° 0 mm 1 mps 757 mmHg 92%
    21:00 +16°C° 0 mm 1 mps 757 mmHg 94%
    22:00 +15°C° 0 mm 1 mps 757 mmHg 94%
    23:00 +15°C° 0 mm 1 mps 757 mmHg 94%

    25 June, Tuesday

    Time Temperature Precipitation Wind Pressure Humidity
    00:00 +15°C° 0 mm 1 mps 757 mmHg 94%
    01:00 +15°C° 0 mm 1 mps 757 mmHg 94%
    02:00 +15°C° 0 mm 2 mps 757 mmHg 93%
    03:00 +15°C° 0 mm 2 mps 757 mmHg 92%
    04:00 +15°C° 0 mm 2 mps 757 mmHg 92%
    05:00 +16°C° 0 mm 3 mps 757 mmHg 92%
    06:00 +17°C° 0 mm 4 mps 756 mmHg 92%
    07:00 +18°C° 0.3 mm 4 mps 756 mmHg 92%
    08:00 +17°C° 0.3 mm 5 mps 756 mmHg 92%
    09:00 +19°C° 0.3 mm 5 mps 756 mmHg 91%
    10:00 +21°C° 0.1 mm 6 mps 755 mmHg 89%
    11:00 +22°C° 0.1 mm 7 mps 755 mmHg 86%
    12:00 +24°C° 0.1 mm 8 mps 754 mmHg 84%
    13:00 +26°C° 0.1 mm 7 mps 754 mmHg 84%
    14:00 +26°C° 0.1 mm 7 mps 754 mmHg 84%
    15:00 +27°C° 0.1 mm 7 mps 754 mmHg 84%
    16:00 +27°C° 1.5 mm 6 mps 754 mmHg 86%
    17:00 +26°C° 1.5 mm 6 mps 754 mmHg 88%
    18:00 +26°C° 1.5 mm 5 mps 754 mmHg 90%
    19:00 +25°C° 2 mm 4 mps 755 mmHg 92%
    20:00 +24°C° 2 mm 3 mps 755 mmHg 94%
    21:00 +23°C° 2 mm 2 mps 756 mmHg 96%
    22:00 +21°C° 0.1 mm 2 mps 756 mmHg 96%
    23:00 +20°C° 0.1 mm 2 mps 757 mmHg 97%
    Show more